Flag for Switzerland Weather past 2 weeks in Liestal, Basel-Land, Switzerland

Now
28 °F

Clear.


Feels Like: 28 °F
Forecast: 28 / 57 °F
Wind: 2 mph from North

Location: Bale-Mulhouse

Current Time: Mar 7, 2015 at 5:53:20 AM

Latest Report: Mar 7, 2015 at 5:30 AM


Visibility: 10 mi

Pressure: 30.51 "Hg

Humidity: 86%

Dew point: 25 °F

Location of LiestalLocation

Historic Weather in Liestal — Graph

°F

Liestal temperature yesterday

Maximum temperature yesterday: 52 °F (at 3:30 PM)
Minimum temperature yesterday: 27 °F (at 4:00 AM)
Average temperature yesterday: 38 °F

Past Weeks' High & Low Weather Summary

 TemperatureHumidityPressure
High61 °F (Feb 20, 4:00 PM)100% (Feb 22, 7:30 AM)30.66 "Hg (Feb 22, 7:30 AM)
Low27 °F (Mar 6, 4:00 AM)18% (Feb 20, 5:00 PM)29.56 "Hg (Feb 21, 6:30 AM)
Average40 °F77%30.05 "Hg
* Reported Feb 20 4:00 AM — Mar 7 4:30 AM, Liestal, Weather by CustomWeather, © 2015

Note: Actual official high and low records may vary slightly from our data, if they occured in-between our weather recording intervals... More about our weather records

Advertising

Liestal weather history for previous 24 hours

 ConditionsComfort  
Time TempWeatherWind HumidityBarometerVisibility
4:30 AM
Sat, Mar 7
28 °FClear.1 mph86%30.51 "Hg10 mi
4:00 AM28 °FClear.1 mph86%30.51 "HgN/A
3:30 AM28 °FClear.1 mph93%30.51 "HgN/A
3:00 AM30 °FClear.3 mph93%30.54 "HgN/A
2:30 AM28 °FClear.2 mph100%30.54 "HgN/A
2:00 AM28 °FClear.2 mph93%30.54 "HgN/A
1:30 AM30 °FClear.2 mph86%30.54 "HgN/A
1:00 AM30 °FClear.1 mph93%30.54 "HgN/A
12:30 AM30 °FClear.2 mph93%30.54 "HgN/A
12:00 AM32 °FClear.2 mph87%30.54 "Hg10 mi
11:30 PM
Fri, Mar 6
34 °FPassing clouds.3 mph81%30.54 "HgN/A
11:00 PM34 °FClear.2 mph87%30.54 "Hg10 mi
10:30 PM34 °FClear.1 mph87%30.57 "Hg10 mi
10:00 PM36 °FClear.3 mph87%30.57 "Hg10 mi
9:30 PM34 °FClear.No wind87%30.57 "Hg10 mi
9:00 PM37 °FClear.3 mph75%30.57 "Hg10 mi
8:30 PM37 °FClear.No wind81%30.54 "Hg10 mi
8:00 PM37 °FClear.2 mph81%30.54 "Hg10 mi
7:30 PM41 °FClear.2 mph66%30.54 "Hg10 mi
7:00 PM43 °FClear.No wind61%30.54 "Hg10 mi
6:30 PM46 °FClear.3 mph50%30.54 "Hg10 mi
6:00 PM48 °FPassing clouds.5 mph46%30.54 "HgN/A
5:30 PM48 °FPassing clouds.5 mph46%30.54 "HgN/A
5:00 PM50 °FSunny.2 mph43%30.54 "Hg10 mi
4:30 PM50 °FSunny.2 mph40%30.54 "Hg10 mi
4:00 PM50 °FSunny.5 mph40%30.54 "Hg10 mi
3:30 PM52 °FSunny.2 mph41%30.57 "Hg10 mi
3:00 PM50 °FPassing clouds.5 mph43%30.57 "HgN/A
2:30 PM50 °FPassing clouds.7 mph47%30.57 "HgN/A
2:00 PM50 °FPassing clouds.5 mph43%30.57 "HgN/A
1:30 PM50 °FSunny.2 mph43%30.60 "Hg10 mi
1:00 PM48 °FSunny.5 mph43%30.60 "Hg10 mi
12:30 PM46 °FPassing clouds.2 mph46%30.60 "HgN/A
12:00 PM46 °FPassing clouds.3 mph50%30.63 "HgN/A
11:30 AM45 °FSunny.2 mph57%30.63 "Hg10 mi
11:00 AM43 °FSunny.2 mph57%30.66 "Hg10 mi
10:30 AM41 °FSunny.2 mph61%30.66 "Hg10 mi
10:00 AM39 °FSunny.3 mph70%30.66 "Hg10 mi
9:30 AM37 °FSunny.5 mph70%30.66 "Hg10 mi
9:00 AM34 °FSunny.3 mph87%30.66 "Hg10 mi
8:30 AM32 °FSunny.2 mph93%30.66 "Hg10 mi
8:00 AM27 °FSunny.3 mph100%30.66 "Hg10 mi
7:30 AM27 °FSunny.2 mph93%30.63 "Hg10 mi
7:00 AM27 °FClear.2 mph93%30.63 "Hg10 mi
6:30 AM27 °FClear.1 mph100%30.63 "Hg10 mi
6:00 AM27 °FClear.2 mph100%30.63 "Hg10 mi
5:30 AM28 °FClear.1 mph93%30.63 "Hg10 mi
5:00 AM27 °FClear.1 mph100%30.60 "Hg10 mi
Weather by CustomWeather, © 2015

See weather overviewHow to use our weather pages